カタログに戻る

EXPRESS AM-8

運用中通信GEO
NORAD 40895·PAYLOAD·🇷🇺 Russia

打ち上げ Sep 14, 2015 から Baikonur Cosmodrome

Loading…

TLE

最新Source: Space-Track

元期: Sep 14, 2026, 10:18 UTC

1 40895U 15048A   26257.42952451  .00000000  00000-0  00000-0 0  9998
2 40895   0.0177 178.6505 0000098  10.6890 304.7036  1.00271515 40241

AllMySatでEXPRESS AM-8をリアルタイム追跡

Download on the App Store